AQUA (27424 NORAD) Tracking and Keplerian Element Data

This shows tracking and keplerian element data for the satellite.

Feedback or suggestion? Click here.




ElementValue
Catalog27424
NameAQUA
Epoch Orbit19385
Epoch Day286.93131139
Epoch Year2024
RAAN236.8602
Inclination98.3425
Eccentricity0.0002462
Argument of Perigee85.3533
Mean Anonmoly316.1313
Mean Motion14.60064932
Decay Rate4.953E-05
L11 27424U 02022A 24286.93131139 .00004953 00000+0 10402-2 0 9996
L22 27424 98.3425 236.8602 0002462 85.3533 316.1313 14.60064932193859



Live tracking and technical data element details for AQUA (NORAD 27424). AQUA can be tracked NOW for your location showing map with azimuth and elevation plus other details from your city location.







IsCatalogInMostPopularTable: catalog: 27424, numindb: 817
Update: records affected: 1



GetName: 27424 AQUA

Hit Count: updated at: Mon, 13 Jan 2025 21:18:58 GMT